GW6303 Weather Reports


time (UTC)temp
C
wind
direction
speed
KPH
gust
KPH
rain 1hr
cm
rain 24hr
cm
rain mn
cm
humidity
%
barometer
mb
20260505153025 26 226 0.0 12.9 0.00 0.00 0.00 47 1012.1
20260505152524 26 190 3.2 12.9 0.00 0.00 0.00 44 1012.2
20260505152026 26 167 1.6 12.9 0.00 0.00 0.00 47 1012.2
20260505151523 26 143 1.6 9.7 0.00 0.00 0.00 46 1012.3
20260505151023 26 167 0.0 6.4 0.00 0.00 0.00 47 1012.4
20260505150522 26 300 0.0 6.4 0.00 0.00 0.00 47 1012.4
20260505140502 21 181 0.0 3.2 0.00 0.00 0.00 56 1013.0
20260505124551 18 199 0.0 1.6 0.00 0.00 0.00 65 1013.0
20260505124045 18 198 0.0 3.2 0.00 0.00 0.00 66 1013.0
20260505123540 17 182 0.0 6.4 0.00 0.00 0.00 67 1012.8
20260505123050 17 193 0.0 3.2 0.00 0.00 0.00 67 1012.8
20260505122538 17 194 0.0 3.2 0.00 0.00 0.00 69 1012.6
20260505122037 17 202 0.0 3.2 0.00 0.00 0.00 71 1012.7
20260505121609 16 220 0.0 3.2 0.00 0.00 0.00 71 1012.7
20260505121035 16 204 0.0 4.8 0.00 0.00 0.00 72 1012.7
20260505120534 16 204 0.0 4.8 0.00 0.00 0.00 72 1012.7
20260505120033 16 210 0.0 3.2 0.00 0.00 0.00 75 1012.7
20260505115531 15 204 0.0 3.2 0.00 0.00 0.00 75 1012.8
20260505115030 15 188 0.0 1.6 0.00 0.00 0.00 76 1012.7
20260505114530 15 199 0.0 1.6 0.00 0.00 0.00 78 1012.7
20260505114028 14 208 0.0 1.6 0.00 0.00 0.00 80 1012.8
20260505113526 13 207 0.0 1.6 0.00 0.00 0.00 81 1012.7
20260505113029 13 205 0.0 1.6 0.00 0.00 0.00 81 1012.7
20260505112530 13 203 0.0 0.0 0.00 0.00 0.00 83 1012.6
20260505112026 12 212 0.0 0.0 0.00 0.00 0.00 84 1012.6
20260505111534 12 218 0.0 0.0 0.00 0.00 0.00 84 1012.5
20260505111024 12 205 0.0 0.0 0.00 0.00 0.00 84 1012.5
20260505110523 12 208 0.0 0.0 0.00 0.00 0.00 85 1012.5
20260505102020 11 205 0.0 0.0 0.00 0.00 0.00 84 1012.4
20260505101520 11 206 0.0 0.0 0.00 0.00 0.00 84 1012.4
20260505101019 11 205 0.0 0.0 0.00 0.00 0.00 84 1012.2
20260505100519 11 206 0.0 0.0 0.00 0.00 0.00 84 1012.5
20260505100033 11 206 0.0 0.0 0.00 0.00 0.00 84 1012.2
20260505095519 11 206 0.0 0.0 0.00 0.00 0.00 84 1012.1
20260505095019 11 206 0.0 0.0 0.00 0.00 0.00 83 1011.9
20260505094516 11 206 0.0 0.0 0.00 0.00 0.00 83 1012.1
20260505094016 12 206 0.0 0.0 0.00 0.00 0.00 83 1012.0
20260505093516 12 207 0.0 0.0 0.00 0.00 0.00 83 1012.0
20260505093025 12 207 0.0 0.0 0.00 0.00 0.00 83 1012.1
20260505092516 12 207 0.0 0.0 0.00 0.00 0.00 83 1012.1
20260505092016 12 207 0.0 0.0 0.00 0.00 0.00 83 1012.0
20260505091518 11 207 0.0 0.0 0.00 0.00 0.00 83 1011.9
20260505091016 11 207 0.0 0.0 0.00 0.00 0.00 82 1011.8
20260505090514 12 207 0.0 0.0 0.00 0.00 0.00 81 1011.9
20260505090013 12 207 0.0 0.0 0.00 0.00 0.00 81 1011.9
20260505085512 12 207 0.0 0.0 0.00 0.00 0.00 81 1011.8
20260505085015 12 207 0.0 0.0 0.00 0.00 0.00 81 1011.8
20260505084511 12 207 0.0 0.0 0.00 0.00 0.00 79 1011.9
20260505084010 12 207 0.0 0.0 0.00 0.00 0.00 80 1011.8
20260505083514 12 207 0.0 0.0 0.00 0.00 0.00 79 1011.7
20260505083008 12 207 0.0 0.0 0.00 0.00 0.00 79 1011.8
20260505082508 12 207 0.0 0.0 0.00 0.00 0.00 79 1011.8
20260505082007 12 207 0.0 0.0 0.00 0.00 0.00 78 1011.9
20260505081507 13 207 0.0 0.0 0.00 0.00 0.00 78 1011.9
20260505081006 13 207 0.0 0.0 0.00 0.00 0.00 77 1011.9
20260505080504 13 207 0.0 0.0 0.00 0.00 0.00 78 1012.0
20260505080004 13 207 0.0 0.0 0.00 0.00 0.00 78 1011.9
20260505075504 13 207 0.0 0.0 0.00 0.00 0.00 78 1011.9
20260505075004 13 207 0.0 0.0 0.00 0.00 0.00 78 1012.0
20260505074507 13 207 0.0 0.0 0.00 0.00 0.00 77 1012.0
20260505074003 13 207 0.0 0.0 0.00 0.00 0.00 77 1012.0
20260505073503 13 207 0.0 0.0 0.00 0.00 0.00 77 1012.0
20260505073002 13 207 0.0 0.0 0.00 0.00 0.00 76 1011.9
20260505072503 13 207 0.0 0.0 0.00 0.00 0.00 76 1012.0
20260505072001 13 207 0.0 0.0 0.00 0.00 0.00 77 1011.9
20260505071501 13 207 0.0 0.0 0.00 0.00 0.00 77 1011.9
20260505071100 13 207 0.0 0.0 0.00 0.00 0.00 76 1012.0
20260505070559 13 207 0.0 0.0 0.00 0.00 0.00 75 1011.8
20260505070104 13 207 0.0 0.0 0.00 0.00 0.00 75 1011.8
20260505065600 13 207 0.0 0.0 0.00 0.00 0.00 74 1011.9
20260505065058 13 207 0.0 0.0 0.00 0.00 0.00 74 1011.9
20260505064608 13 207 0.0 0.0 0.00 0.00 0.00 74 1011.9
20260505064101 13 207 0.0 0.0 0.00 0.00 0.00 74 1011.8
20260505063557 13 207 0.0 0.0 0.00 0.00 0.00 74 1012.0
20260505063057 13 207 0.0 0.0 0.00 0.00 0.00 74 1011.9
20260505062557 13 207 0.0 0.0 0.00 0.00 0.00 73 1012.0
20260505062056 13 207 0.0 0.0 0.00 0.00 0.00 73 1012.0
20260505061556 13 207 0.0 0.0 0.00 0.00 0.00 73 1012.1
20260505061055 13 207 0.0 0.0 0.00 0.00 0.00 72 1012.0
20260505060559 14 207 0.0 1.6 0.00 0.00 0.00 72 1012.0
20260505060055 14 207 0.0 1.6 0.00 0.00 0.00 72 1012.0
20260505055554 14 207 0.0 0.0 0.00 0.00 0.00 71 1012.0
20260505055054 14 207 0.0 1.6 0.00 0.00 0.00 71 1011.9
20260505054619 14 207 0.0 1.6 0.00 0.00 0.00 70 1011.8
20260505054056 14 190 0.0 3.2 0.00 0.00 0.00 70 1011.8
20260505053552 14 179 0.0 3.2 0.00 0.00 0.00 71 1011.8
20260505053053 14 208 0.0 0.0 0.00 0.00 0.00 71 1011.9
20260505052552 14 208 0.0 0.0 0.00 0.00 0.00 71 1012.0
20260505052052 14 208 0.0 0.0 0.00 0.00 0.00 70 1011.9
20260505051652 14 204 0.0 0.0 0.00 0.00 0.00 70 1012.1
20260505051051 14 204 0.0 0.0 0.00 0.00 0.00 69 1012.1
20260505050549 14 201 0.0 0.0 0.00 0.00 0.00 69 1012.0
20260505041549 13 214 0.0 0.0 0.00 0.00 0.00 66 1012.0
20260505041040 13 214 0.0 0.0 0.00 0.00 0.00 65 1012.0
20260505040539 13 214 0.0 0.0 0.00 0.00 0.00 65 1012.0
20260505040042 13 214 0.0 0.0 0.00 0.00 0.00 65 1012.2
20260505035537 13 214 0.0 0.0 0.00 0.00 0.00 65 1012.1
20260505035040 13 214 0.0 0.0 0.00 0.00 0.00 64 1012.1
20260505034537 13 214 0.0 0.0 0.00 0.00 0.00 64 1012.0
20260505034037 13 214 0.0 0.0 0.00 0.00 0.00 64 1012.0
20260505033537 14 214 0.0 0.0 0.00 0.00 0.00 63 1012.1
20260505033037 14 214 0.0 0.0 0.00 0.00 0.00 63 1012.1
20260505032536 14 226 0.0 0.0 0.00 0.00 0.00 62 1012.3
20260505032036 14 226 0.0 0.0 0.00 0.00 0.00 62 1012.2
20260505031541 14 226 0.0 0.0 0.00 0.00 0.00 62 1012.2
20260505031036 15 226 0.0 0.0 0.00 0.00 0.00 61 1012.2
20260505030536 15 226 0.0 0.0 0.00 0.00 0.00 61 1012.2
20260505030053 15 226 0.0 0.0 0.00 0.00 0.00 61 1012.2
20260505025536 15 226 0.0 0.0 0.00 0.00 0.00 61 1012.4
20260505025036 15 226 0.0 0.0 0.00 0.00 0.00 62 1012.4
20260505024536 14 226 0.0 0.0 0.00 0.00 0.00 62 1012.3
20260505024035 14 226 0.0 0.0 0.00 0.00 0.00 61 1012.5
20260505023535 15 226 0.0 0.0 0.00 0.00 0.00 62 1012.4
20260505023035 15 226 0.0 0.0 0.00 0.00 0.00 61 1012.5
20260505022535 15 226 0.0 0.0 0.00 0.00 0.00 61 1012.5
20260505022035 15 226 0.0 0.0 0.00 0.00 0.00 60 1012.4
20260505021542 15 226 0.0 0.0 0.00 0.00 0.00 60 1012.4
20260505021034 15 226 0.0 0.0 0.00 0.00 0.00 59 1012.4
20260505020534 15 226 0.0 0.0 0.00 0.00 0.00 59 1012.4
20260505020048 15 226 0.0 0.0 0.00 0.00 0.00 59 1012.4
20260505015534 15 226 0.0 0.0 0.00 0.00 0.00 59 1012.4
20260505015034 15 226 0.0 0.0 0.00 0.00 0.00 59 1012.4
20260505014534 15 226 0.0 0.0 0.00 0.00 0.00 59 1012.4
20260505014033 15 204 0.0 0.0 0.00 0.00 0.00 58 1012.3
20260505013632 15 204 0.0 0.0 0.00 0.00 0.00 59 1012.3
20260505013032 15 204 0.0 0.0 0.00 0.00 0.00 58 1012.2
20260505012532 15 204 0.0 0.0 0.00 0.00 0.00 57 1012.4
20260505012032 15 204 0.0 0.0 0.00 0.00 0.00 56 1012.3
20260505011534 15 204 0.0 0.0 0.00 0.00 0.00 57 1012.2
20260505011031 15 204 0.0 0.0 0.00 0.00 0.00 56 1012.1
20260505010531 15 204 0.0 0.0 0.00 0.00 0.00 55 1012.1
20260505010044 15 204 0.0 0.0 0.00 0.00 0.00 55 1012.2
20260505005531 16 204 0.0 0.0 0.00 0.00 0.00 54 1012.0
20260505005031 16 204 0.0 0.0 0.00 0.00 0.00 53 1011.8
20260505004532 16 204 0.0 0.0 0.00 0.00 0.00 53 1011.7
20260505004030 16 204 0.0 0.0 0.00 0.00 0.00 53 1011.7
20260505003532 16 204 0.0 0.0 0.00 0.00 0.00 52 1011.6
20260505003031 17 204 0.0 0.0 0.00 0.00 0.00 51 1011.6
20260505002534 17 204 0.0 0.0 0.00 0.00 0.00 50 1011.6
20260505002030 17 204 0.0 0.0 0.00 0.00 0.00 48 1011.5
20260505001530 17 204 0.0 1.6 0.00 0.00 0.00 48 1011.6
20260505001029 18 200 0.0 1.6 0.00 0.00 0.00 47 1011.5
20260505000529 18 225 0.0 1.6 0.00 0.00 0.00 47 1011.6
20260505000034 18 233 0.0 3.2 0.00 0.00 0.00 46 1011.5
20260504235529 18 237 0.0 3.2 0.00 0.00 0.00 46 1011.5
20260504235031 18 198 0.0 1.6 0.00 0.00 0.00 45 1011.5
20260504234529 19 210 0.0 1.6 0.00 0.00 0.00 45 1011.4
20260504234028 19 210 0.0 4.8 0.00 0.00 0.00 44 1011.3
20260504233529 19 155 0.0 4.8 0.00 0.00 0.00 43 1011.1
20260504233028 20 222 0.0 3.2 0.00 0.00 0.00 44 1011.1
20260504232528 20 227 0.0 1.6 0.00 0.00 0.00 43 1011.1
20260504232028 20 214 0.0 1.6 0.00 0.00 0.00 44 1011.1
20260504231532 20 205 0.0 4.8 0.00 0.00 0.00 43 1011.0
20260504231028 20 160 0.0 4.8 0.00 0.00 0.00 42 1011.1
20260504230529 20 214 0.0 4.8 0.00 0.00 0.00 42 1010.9
20260504230027 21 200 0.0 4.8 0.00 0.00 0.00 41 1010.9
20260504225526 21 210 0.0 8.0 0.00 0.00 0.00 41 1010.9
20260504225026 21 228 0.0 8.0 0.00 0.00 0.00 40 1010.9
20260504224532 21 170 0.0 11.3 0.00 0.00 0.00 40 1011.0
20260504224025 22 181 0.0 11.3 0.00 0.00 0.00 39 1011.0
20260504223525 22 199 0.0 4.8 0.00 0.00 0.00 39 1011.1
20260504223027 22 210 0.0 3.2 0.00 0.00 0.00 39 1011.0
20260504222525 22 238 0.0 11.3 0.00 0.00 0.00 39 1011.0
20260504222026 22 182 0.0 11.3 0.00 0.00 0.00 39 1011.1
20260504221525 22 192 0.0 11.3 0.00 0.00 0.00 38 1011.1
20260504221026 23 256 0.0 6.4 0.00 0.00 0.00 38 1011.1
20260504220524 23 266 0.0 4.8 0.00 0.00 0.00 37 1011.2
20260504220023 23 201 1.6 4.8 0.00 0.00 0.00 37 1011.2
20260504215529 23 188 0.0 3.2 0.00 0.00 0.00 38 1011.1
20260504215022 23 185 0.0 6.4 0.00 0.00 0.00 38 1011.1
20260504214535 22 217 0.0 14.5 0.00 0.00 0.00 38 1011.3
20260504214022 22 185 3.2 14.5 0.00 0.00 0.00 37 1011.2
20260504213522 23 164 1.6 9.7 0.00 0.00 0.00 38 1011.2
20260504213025 23 175 0.0 9.7 0.00 0.00 0.00 37 1011.3
20260504212521 23 219 0.0 0.0 0.00 0.00 0.00 37 1011.3
20260504212020 23 200 0.0 6.4 0.00 0.00 0.00 36 1011.5
20260504211522 23 186 0.0 8.0 0.00 0.00 0.00 38 1011.4
20260504211019 23 214 0.0 11.3 0.00 0.00 0.00 37 1011.4
20260504210522 23 215 0.0 11.3 0.00 0.00 0.00 38 1011.4
20260504210021 23 212 0.0 9.7 0.00 0.00 0.00 37 1011.5
20260504205518 23 184 0.0 12.9 0.00 0.00 0.00 37 1011.4
20260504205022 23 181 1.6 12.9 0.00 0.00 0.00 37 1011.6
20260504204517 23 174 0.0 8.0 0.00 0.00 0.00 38 1011.7
20260504204017 23 186 1.6 8.0 0.00 0.00 0.00 38 1011.6
20260504203515 22 210 0.0 6.4 0.00 0.00 0.00 39 1011.7
20260504203017 22 217 0.0 8.0 0.00 0.00 0.00 38 1011.7
20260504202514 22 194 1.6 8.0 0.00 0.00 0.00 38 1011.5
20260504202114 22 222 0.0 8.0 0.00 0.00 0.00 39 1011.4
20260504201513 22 230 1.6 8.0 0.00 0.00 0.00 37 1011.6
20260504201013 22 216 1.6 4.8 0.00 0.00 0.00 39 1011.5
20260504200510 22 197 0.0 8.0 0.00 0.00 0.00 39 1011.5
20260504200016 21 182 1.6 9.7 0.00 0.00 0.00 39 1011.8
20260504195509 21 120 3.2 9.7 0.00 0.00 0.00 38 1011.7
20260504195009 21 283 0.0 11.3 0.00 0.00 0.00 40 1011.7
20260504194511 21 274 1.6 11.3 0.00 0.00 0.00 39 1011.8
20260504194009 21 207 0.0 6.4 0.00 0.00 0.00 39 1011.9
20260504193514 21 201 0.0 11.3 0.00 0.00 0.00 40 1011.9
20260504193008 21 234 1.6 12.9 0.00 0.00 0.00 38 1011.9
20260504192509 21 144 1.6 11.3 0.00 0.00 0.00 39 1011.8
20260504192008 21 189 0.0 8.0 0.00 0.00 0.00 39 1012.1
20260504191506 21 199 1.6 8.0 0.00 0.00 0.00 39 1011.9
20260504191005 21 180 1.6 8.0 0.00 0.00 0.00 38 1012.2
20260504190506 21 181 0.0 4.8 0.00 0.00 0.00 38 1012.2
20260504190002 21 198 0.0 6.4 0.00 0.00 0.00 38 1012.3
20260504185502 21 193 0.0 6.4 0.00 0.00 0.00 38 1012.4
20260504185002 21 216 1.6 6.4 0.00 0.00 0.00 38 1012.3
20260504184502 21 170 0.0 8.0 0.00 0.00 0.00 39 1012.4
20260504184101 21 181 1.6 8.0 0.00 0.00 0.00 38 1012.4
20260504183601 21 193 0.0 6.4 0.00 0.00 0.00 40 1012.5
20260504183059 21 188 0.0 8.0 0.00 0.00 0.00 39 1012.5
20260504182601 21 191 0.0 6.4 0.00 0.00 0.00 39 1012.5
20260504182057 21 236 0.0 6.4 0.00 0.00 0.00 38 1012.6
20260504181602 21 205 0.0 6.4 0.00 0.00 0.00 38 1012.8
20260504181056 21 206 0.0 9.7 0.00 0.00 0.00 39 1012.7
20260504180553 21 113 1.6 9.7 0.00 0.00 0.00 38 1013.0
20260504180054 21 206 0.0 6.4 0.00 0.00 0.00 40 1013.0
20260504175553 21 131 0.0 6.4 0.00 0.00 0.00 41 1013.3
20260504175053 21 154 0.0 6.4 0.00 0.00 0.00 39 1013.2
20260504174556 21 204 0.0 9.7 0.00 0.00 0.00 39 1013.2
20260504174053 21 207 1.6 11.3 0.00 0.00 0.00 38 1013.4
20260504173552 21 54 1.6 11.3 0.00 0.00 0.00 38 1013.3
20260504173050 21 131 1.6 8.0 0.00 0.00 0.00 39 1013.5
20260504172549 21 179 0.0 4.8 0.00 0.00 0.00 37 1013.5
20260504172049 21 233 0.0 3.2 0.00 0.00 0.00 38 1013.6
20260504171549 21 180 0.0 6.4 0.00 0.00 0.00 39 1013.7
20260504171048 21 193 0.0 8.0 0.00 0.00 0.00 39 1013.5
20260504170547 21 208 1.6 8.0 0.00 0.00 0.00 38 1013.6